TimeEDT,TemperatureF,Dew PointF,Humidity,Sea Level PressureIn,VisibilityMPH,Wind Direction,Wind SpeedMPH,Gust SpeedMPH,PrecipitationIn,Events,Conditions,WindDirDegrees,DateUTC
12:15 AM,77.0,75.2,94,30.04,7.0,Calm,Calm,-,N/A,,Overcast,0,2013-07-27 04:15:00
12:35 AM,78.8,77.0,94,30.05,7.0,Calm,Calm,-,N/A,,Overcast,0,2013-07-27 04:35:00
12:55 AM,78.8,77.0,94,30.04,10.0,Calm,Calm,-,N/A,,Overcast,0,2013-07-27 04:55:00
1:15 AM,78.8,77.0,94,30.03,7.0,East,5.8,-,N/A,,Mostly Cloudy,100,2013-07-27 05:15:00
1:35 AM,80.6,77.0,89,30.01,10.0,ESE,4.6,-,N/A,,Scattered Clouds,110,2013-07-27 05:35:00
1:55 AM,80.6,77.0,89,30.01,10.0,ESE,4.6,-,N/A,,Clear,120,2013-07-27 05:55:00
2:15 AM,80.6,77.0,89,30.00,10.0,ESE,5.8,-,N/A,,Clear,120,2013-07-27 06:15:00
2:35 AM,80.6,77.0,89,29.98,10.0,ESE,4.6,-,N/A,,Clear,120,2013-07-27 06:35:00
2:55 AM,80.6,75.2,84,29.98,10.0,ESE,4.6,-,N/A,,Scattered Clouds,110,2013-07-27 06:55:00
3:15 AM,80.6,75.2,84,29.98,10.0,ESE,3.5,-,N/A,,Scattered Clouds,120,2013-07-27 07:15:00
3:35 AM,80.6,75.2,84,29.98,10.0,Calm,Calm,-,N/A,,Scattered Clouds,0,2013-07-27 07:35:00
3:55 AM,80.6,75.2,84,29.98,10.0,Calm,Calm,-,N/A,,Clear,0,2013-07-27 07:55:00
4:15 AM,78.8,75.2,89,29.98,10.0,Calm,Calm,-,N/A,,Clear,0,2013-07-27 08:15:00
4:35 AM,75.2,73.4,94,29.98,7.0,Calm,Calm,-,N/A,,Clear,0,2013-07-27 08:35:00
4:55 AM,75.2,73.4,94,29.98,4.0,Calm,Calm,-,N/A,,Clear,0,2013-07-27 08:55:00
5:15 AM,75.2,73.4,94,29.98,5.0,Calm,Calm,-,N/A,,Mostly Cloudy,0,2013-07-27 09:15:00
5:35 AM,75.2,73.4,94,29.98,5.0,Calm,Calm,-,N/A,,Overcast,0,2013-07-27 09:35:00
5:55 AM,73.4,73.4,100,29.98,4.0,Calm,Calm,-,N/A,,Scattered Clouds,0,2013-07-27 09:55:00
6:15 AM,73.4,73.4,100,29.98,0.5,Calm,Calm,-,N/A,,Mostly Cloudy,0,2013-07-27 10:15:00
6:35 AM,73.4,73.4,100,29.98,0.2,Calm,Calm,-,N/A,,Mostly Cloudy,0,2013-07-27 10:35:00
6:55 AM,73.4,71.6,94,29.99,1.8,ENE,3.5,-,N/A,,Mostly Cloudy,70,2013-07-27 10:55:00
7:15 AM,73.4,73.4,100,29.99,3.0,Calm,Calm,-,N/A,,Scattered Clouds,0,2013-07-27 11:15:00
7:35 AM,75.2,73.4,94,30.00,4.0,Calm,Calm,-,N/A,,Scattered Clouds,0,2013-07-27 11:35:00
7:55 AM,77.0,77.0,100,30.00,7.0,Calm,Calm,-,N/A,,Scattered Clouds,0,2013-07-27 11:55:00
8:15 AM,80.6,77.0,89,30.00,10.0,Calm,Calm,-,N/A,,Scattered Clouds,0,2013-07-27 12:15:00
8:35 AM,82.4,77.0,84,30.00,10.0,SSE,4.6,-,N/A,,Scattered Clouds,160,2013-07-27 12:35:00
8:55 AM,82.4,77.0,84,30.00,10.0,SE,5.8,-,N/A,,Mostly Cloudy,140,2013-07-27 12:55:00
9:15 AM,82.4,75.2,79,30.00,10.0,SSE,5.8,-,N/A,,Scattered Clouds,150,2013-07-27 13:15:00
9:35 AM,82.4,73.4,74,30.00,10.0,SE,5.8,-,N/A,,Clear,140,2013-07-27 13:35:00
9:55 AM,86.0,73.4,66,30.00,10.0,SSE,3.5,-,N/A,,Scattered Clouds,150,2013-07-27 13:55:00
10:15 AM,86.0,73.4,66,30.00,10.0,SW,8.1,-,N/A,,Mostly Cloudy,230,2013-07-27 14:15:00
10:35 AM,86.0,71.6,62,30.01,10.0,SSW,4.6,-,N/A,,Scattered Clouds,200,2013-07-27 14:35:00
10:55 AM,87.8,71.6,58,30.01,10.0,SSW,3.5,-,N/A,,Clear,200,2013-07-27 14:55:00
11:15 AM,87.8,73.4,62,30.00,10.0,SW,6.9,-,N/A,,Scattered Clouds,230,2013-07-27 15:15:00
11:35 AM,86.0,71.6,62,30.00,10.0,Calm,Calm,-,N/A,,Scattered Clouds,0,2013-07-27 15:35:00
11:55 AM,87.8,71.6,58,30.00,10.0,SW,4.6,-,N/A,,Clear,230,2013-07-27 15:55:00
12:15 PM,89.6,71.6,55,29.99,10.0,WSW,4.6,-,N/A,,Scattered Clouds,240,2013-07-27 16:15:00
12:35 PM,89.6,71.6,55,29.98,10.0,SSE,4.6,-,N/A,,Scattered Clouds,150,2013-07-27 16:35:00
12:55 PM,87.8,73.4,62,29.97,10.0,ESE,6.9,-,N/A,,Mostly Cloudy,110,2013-07-27 16:55:00
1:15 PM,87.8,73.4,62,29.97,10.0,SSE,5.8,-,N/A,,Mostly Cloudy,150,2013-07-27 17:15:00
1:35 PM,89.6,73.4,59,29.96,10.0,SSE,6.9,-,N/A,,Scattered Clouds,160,2013-07-27 17:35:00
1:55 PM,91.4,73.4,55,29.95,10.0,SSW,3.5,-,N/A,,Clear,200,2013-07-27 17:55:00
2:15 PM,89.6,73.4,59,29.94,10.0,SSE,6.9,-,N/A,Thunderstorm,Clear,160,2013-07-27 18:15:00
2:35 PM,87.8,73.4,62,29.93,10.0,SSE,6.9,-,N/A,,Clear,150,2013-07-27 18:35:00
2:55 PM,84.2,71.6,66,29.94,10.0,Calm,Calm,-,N/A,,Mostly Cloudy,0,2013-07-27 18:55:00
3:15 PM,82.4,71.6,70,29.94,10.0,Calm,Calm,-,N/A,,Overcast,0,2013-07-27 19:15:00
3:35 PM,78.8,73.4,83,29.93,1.0,East,4.6,-,N/A,Thunderstorm,Overcast,80,2013-07-27 19:35:00
3:55 PM,78.8,73.4,83,29.93,10.0,NNE,4.6,-,N/A,Thunderstorm,Mostly Cloudy,30,2013-07-27 19:55:00
4:15 PM,78.8,75.2,89,29.93,10.0,NE,4.6,-,N/A,Thunderstorm,Mostly Cloudy,40,2013-07-27 20:15:00
4:35 PM,77.0,73.4,89,29.93,10.0,Calm,Calm,-,N/A,Thunderstorm,Overcast,0,2013-07-27 20:35:00
4:55 PM,78.8,75.2,89,29.94,10.0,Calm,Calm,-,N/A,Thunderstorm,Thunderstorm,0,2013-07-27 20:55:00
5:15 PM,78.8,75.2,89,29.95,2.5,SSE,6.9,-,N/A,Thunderstorm,Thunderstorm,150,2013-07-27 21:15:00
5:35 PM,77.0,73.4,89,29.93,4.0,SE,10.4,-,N/A,Thunderstorm,Thunderstorm,130,2013-07-27 21:35:00
5:55 PM,75.2,71.6,89,29.93,10.0,SE,8.1,-,N/A,Thunderstorm,Thunderstorm,140,2013-07-27 21:55:00
6:15 PM,75.2,71.6,89,29.93,7.0,Calm,Calm,-,N/A,Thunderstorm,Thunderstorm,0,2013-07-27 22:15:00
6:35 PM,77.0,71.6,83,29.93,10.0,Calm,Calm,-,N/A,,Overcast,0,2013-07-27 22:35:00
6:55 PM,77.0,73.4,89,29.93,10.0,Calm,Calm,-,N/A,,Mostly Cloudy,0,2013-07-27 22:55:00
7:15 PM,77.0,73.4,89,29.95,10.0,Calm,Calm,-,N/A,,Overcast,0,2013-07-27 23:15:00
7:35 PM,77.0,73.4,89,29.94,10.0,Calm,Calm,-,N/A,,Overcast,0,2013-07-27 23:35:00
7:55 PM,77.0,73.4,89,29.94,10.0,Calm,Calm,-,N/A,,Overcast,0,2013-07-27 23:55:00
8:15 PM,77.0,73.4,89,29.95,10.0,Calm,Calm,-,N/A,,Scattered Clouds,0,2013-07-28 00:15:00
8:35 PM,77.0,73.4,89,29.95,10.0,Calm,Calm,-,N/A,,Clear,0,2013-07-28 00:35:00
8:55 PM,75.2,73.4,94,29.95,7.0,Calm,Calm,-,N/A,,Clear,0,2013-07-28 00:55:00
9:15 PM,73.4,73.4,100,29.95,7.0,Calm,Calm,-,N/A,,Clear,0,2013-07-28 01:15:00
9:35 PM,73.4,73.4,100,29.96,5.0,Calm,Calm,-,N/A,,Clear,0,2013-07-28 01:35:00
9:55 PM,73.4,73.4,100,29.96,7.0,Calm,Calm,-,N/A,,Clear,0,2013-07-28 01:55:00
10:15 PM,73.4,73.4,100,29.96,7.0,Calm,Calm,-,N/A,,Mostly Cloudy,0,2013-07-28 02:15:00
10:35 PM,75.2,73.4,94,29.96,7.0,NNW,3.5,-,N/A,,Mostly Cloudy,340,2013-07-28 02:35:00
10:55 PM,75.2,73.4,94,29.96,10.0,Calm,Calm,-,N/A,,Scattered Clouds,0,2013-07-28 02:55:00
11:15 PM,73.4,73.4,100,29.96,7.0,NW,3.5,-,N/A,,Clear,320,2013-07-28 03:15:00
11:35 PM,73.4,73.4,100,29.96,5.0,Calm,Calm,-,N/A,,Clear,0,2013-07-28 03:35:00
11:55 PM,73.4,73.4,100,29.96,7.0,Calm,Calm,-,N/A,,Clear,0,2013-07-28 03:55:00